Time,TemperatureF,DewpointF,PressureIn,WindDirection,WindDirectionDegrees,WindSpeedMPH,WindSpeedGustMPH,Humidity,HourlyPrecipIn,Conditions,Clouds,dailyrainin,SoftwareType,DateUTC
2013-01-24 00:01:00,12.7,7.4,30.09,North,0,0.0,0.0,79,0.00,,,0.00,WUHU21623XXSP,2013-01-24 05:01:00,
2013-01-24 00:06:00,12.7,7.4,30.09,SW,225,0.0,0.0,79,0.00,,,0.00,WUHU21623XXSP,2013-01-24 05:06:00,
2013-01-24 00:11:00,12.7,7.4,30.09,NNW,337,0.0,0.0,79,0.00,,,0.00,WUHU21623XXSP,2013-01-24 05:11:00,
2013-01-24 00:16:00,12.7,7.4,30.09,SSW,202,0.0,0.0,79,0.00,,,0.00,WUHU21623XXSP,2013-01-24 05:16:00,
2013-01-24 00:21:00,12.7,7.4,30.10,North,0,0.0,0.0,79,0.00,,,0.00,WUHU21623XXSP,2013-01-24 05:21:00,
2013-01-24 00:26:00,12.7,7.7,30.11,NNW,337,0.0,0.0,80,0.00,,,0.00,WUHU21623XXSP,2013-01-24 05:26:00,
2013-01-24 00:31:00,12.7,7.7,30.11,SSW,202,0.0,0.0,80,0.00,,,0.00,WUHU21623XXSP,2013-01-24 05:31:00,
2013-01-24 00:36:00,12.7,7.7,30.11,North,0,0.0,0.0,80,0.00,,,0.00,WUHU21623XXSP,2013-01-24 05:36:00,
2013-01-24 00:41:00,12.7,7.7,30.11,SSW,202,0.0,0.0,80,0.00,,,0.00,WUHU21623XXSP,2013-01-24 05:41:00,
2013-01-24 00:46:00,12.7,7.7,30.11,NNW,337,0.0,0.0,80,0.00,,,0.00,WUHU21623XXSP,2013-01-24 05:46:00,
2013-01-24 00:51:00,12.7,7.7,30.12,North,0,0.0,0.0,80,0.00,,,0.00,WUHU21623XXSP,2013-01-24 05:51:00,
2013-01-24 00:56:00,12.7,7.7,30.12,NNW,337,0.0,0.0,80,0.00,,,0.00,WUHU21623XXSP,2013-01-24 05:56:00,
2013-01-24 01:01:00,12.7,7.7,30.13,NNW,337,0.0,0.0,80,0.00,,,0.00,WUHU21623XXSP,2013-01-24 06:01:00,
2013-01-24 01:06:00,12.7,7.7,30.12,NNW,337,0.0,0.0,80,0.00,,,0.00,WUHU21623XXSP,2013-01-24 06:06:00,
2013-01-24 01:11:00,12.6,7.5,30.13,North,0,0.0,0.0,80,0.00,,,0.00,WUHU21623XXSP,2013-01-24 06:11:00,
2013-01-24 01:16:00,12.6,7.5,30.13,NNW,337,0.0,0.0,80,0.00,,,0.00,WUHU21623XXSP,2013-01-24 06:16:00,
2013-01-24 01:21:00,12.2,7.2,30.14,NNW,337,0.0,0.0,80,0.00,,,0.00,WUHU21623XXSP,2013-01-24 06:21:00,
2013-01-24 01:26:00,12.0,7.2,30.14,NNW,337,0.0,0.0,80,0.00,,,0.00,WUHU21623XXSP,2013-01-24 06:26:00,
2013-01-24 01:31:00,12.0,7.0,30.14,North,0,0.0,0.0,80,0.00,,,0.00,WUHU21623XXSP,2013-01-24 06:31:00,
2013-01-24 01:36:00,11.8,6.8,30.15,NNW,337,0.0,0.0,80,0.00,,,0.00,WUHU21623XXSP,2013-01-24 06:36:00,
2013-01-24 01:41:00,11.5,6.4,30.15,North,0,0.0,0.0,80,0.00,,,0.00,WUHU21623XXSP,2013-01-24 06:41:00,
2013-01-24 01:46:00,11.3,6.3,30.16,North,0,0.0,0.0,80,0.00,,,0.00,WUHU21623XXSP,2013-01-24 06:46:00,
2013-01-24 01:51:00,11.1,6.1,30.16,North,0,0.0,0.0,80,0.00,,,0.00,WUHU21623XXSP,2013-01-24 06:51:00,
2013-01-24 01:56:00,10.9,5.9,30.16,North,0,0.0,0.0,80,0.00,,,0.00,WUHU21623XXSP,2013-01-24 06:56:00,
2013-01-24 02:01:00,10.8,5.7,30.17,NNW,337,0.0,0.0,80,0.00,,,0.00,WUHU21623XXSP,2013-01-24 07:01:00,
2013-01-24 02:06:00,10.6,5.5,30.17,NNW,337,0.0,0.0,80,0.00,,,0.00,WUHU21623XXSP,2013-01-24 07:06:00,
2013-01-24 02:11:00,10.2,5.2,30.18,North,0,0.0,0.0,80,0.00,,,0.00,WUHU21623XXSP,2013-01-24 07:11:00,
2013-01-24 02:16:00,10.2,5.2,30.17,NNW,337,0.0,0.0,80,0.00,,,0.00,WUHU21623XXSP,2013-01-24 07:16:00,
2013-01-24 02:21:00,10.0,5.3,30.18,North,0,0.0,0.0,81,0.00,,,0.00,WUHU21623XXSP,2013-01-24 07:21:00,
2013-01-24 02:27:00,10.0,5.3,30.19,North,0,0.0,0.0,81,0.00,,,0.00,WUHU21623XXSP,2013-01-24 07:27:00,
2013-01-24 02:31:00,9.7,5.0,30.19,North,0,0.0,0.0,81,0.00,,,0.00,WUHU21623XXSP,2013-01-24 07:31:00,
2013-01-24 02:36:00,9.5,4.8,30.20,North,0,0.0,0.0,81,0.00,,,0.00,WUHU21623XXSP,2013-01-24 07:36:00,
2013-01-24 02:41:00,9.3,4.6,30.21,NNW,337,0.0,0.0,81,0.00,,,0.00,WUHU21623XXSP,2013-01-24 07:41:00,
2013-01-24 02:46:00,9.1,4.5,30.21,NNW,337,0.0,0.0,81,0.00,,,0.00,WUHU21623XXSP,2013-01-24 07:46:00,
2013-01-24 02:51:00,9.0,4.3,30.21,NNW,337,0.0,0.0,81,0.00,,,0.00,WUHU21623XXSP,2013-01-24 07:51:00,
2013-01-24 02:56:00,8.8,4.2,30.21,NNW,337,0.0,0.0,81,0.00,,,0.00,WUHU21623XXSP,2013-01-24 07:56:00,
2013-01-24 03:01:00,8.6,4.0,30.21,North,0,0.0,0.0,81,0.00,,,0.00,WUHU21623XXSP,2013-01-24 08:01:00,
2013-01-24 03:06:00,8.4,3.8,30.22,North,0,0.0,0.0,81,0.00,,,0.00,WUHU21623XXSP,2013-01-24 08:06:00,
2013-01-24 03:11:00,8.4,3.8,30.22,NNW,337,0.0,0.0,81,0.00,,,0.00,WUHU21623XXSP,2013-01-24 08:11:00,
2013-01-24 03:16:00,8.2,3.6,30.23,NNW,337,0.0,0.0,81,0.00,,,0.00,WUHU21623XXSP,2013-01-24 08:16:00,
2013-01-24 03:22:00,8.1,3.5,30.23,NNW,337,0.0,0.0,81,0.00,,,0.00,WUHU21623XXSP,2013-01-24 08:22:00,
2013-01-24 03:27:00,7.9,3.3,30.23,NNW,337,0.0,0.0,81,0.00,,,0.00,WUHU21623XXSP,2013-01-24 08:27:00,
2013-01-24 03:32:00,7.9,3.5,30.24,North,0,0.0,0.0,82,0.00,,,0.00,WUHU21623XXSP,2013-01-24 08:32:00,
2013-01-24 03:37:00,7.7,3.3,30.24,North,0,0.0,0.0,82,0.00,,,0.00,WUHU21623XXSP,2013-01-24 08:37:00,
2013-01-24 03:42:00,7.7,3.3,30.24,North,0,0.0,0.0,82,0.00,,,0.00,WUHU21623XXSP,2013-01-24 08:42:00,
2013-01-24 03:47:00,7.5,3.2,30.24,SSW,202,0.0,0.0,82,0.00,,,0.00,WUHU21623XXSP,2013-01-24 08:47:00,
2013-01-24 03:52:00,7.5,3.2,30.25,SW,225,0.0,0.0,82,0.00,,,0.00,WUHU21623XXSP,2013-01-24 08:52:00,
2013-01-24 03:57:00,7.5,3.2,30.25,North,0,0.0,0.0,82,0.00,,,0.00,WUHU21623XXSP,2013-01-24 08:57:00,
2013-01-24 04:02:00,7.5,3.2,30.26,NNW,337,0.0,0.0,82,0.00,,,0.00,WUHU21623XXSP,2013-01-24 09:02:00,
2013-01-24 04:07:00,7.3,3.0,30.27,SSW,202,0.0,0.0,82,0.00,,,0.00,WUHU21623XXSP,2013-01-24 09:07:00,
2013-01-24 04:12:00,7.3,3.0,30.27,North,0,0.0,0.0,82,0.00,,,0.00,WUHU21623XXSP,2013-01-24 09:12:00,
2013-01-24 04:17:00,7.2,2.8,30.27,North,0,0.0,0.0,82,0.00,,,0.00,WUHU21623XXSP,2013-01-24 09:17:00,
2013-01-24 04:22:00,7.0,2.6,30.28,North,0,0.0,0.0,82,0.00,,,0.00,WUHU21623XXSP,2013-01-24 09:22:00,
2013-01-24 04:27:00,7.0,2.6,30.27,SSW,202,0.0,0.0,82,0.00,,,0.00,WUHU21623XXSP,2013-01-24 09:27:00,
2013-01-24 04:32:00,7.0,2.6,30.28,North,0,0.0,0.0,82,0.00,,,0.00,WUHU21623XXSP,2013-01-24 09:32:00,
2013-01-24 04:37:00,7.0,2.6,30.29,North,0,0.0,0.0,82,0.00,,,0.00,WUHU21623XXSP,2013-01-24 09:37:00,
2013-01-24 04:42:00,6.6,2.3,30.29,North,0,0.0,0.0,82,0.00,,,0.00,WUHU21623XXSP,2013-01-24 09:42:00,
2013-01-24 04:47:00,6.6,2.3,30.29,NNW,337,0.0,0.0,82,0.00,,,0.00,WUHU21623XXSP,2013-01-24 09:47:00,
2013-01-24 04:52:00,6.6,2.3,30.29,North,0,0.0,0.0,82,0.00,,,0.00,WUHU21623XXSP,2013-01-24 09:52:00,
2013-01-24 04:57:00,6.6,2.3,30.30,NNW,337,0.0,0.0,82,0.00,,,0.00,WUHU21623XXSP,2013-01-24 09:57:00,
2013-01-24 05:02:00,6.4,2.1,30.30,North,0,0.0,0.0,82,0.00,,,0.00,WUHU21623XXSP,2013-01-24 10:02:00,
2013-01-24 05:07:00,6.4,2.3,30.31,NNW,337,0.0,0.0,83,0.00,,,0.00,WUHU21623XXSP,2013-01-24 10:07:00,
2013-01-24 05:12:00,6.4,2.1,30.31,North,0,0.0,0.0,82,0.00,,,0.00,WUHU21623XXSP,2013-01-24 10:12:00,
2013-01-24 05:17:00,6.4,2.3,30.31,SSW,202,0.0,0.0,83,0.00,,,0.00,WUHU21623XXSP,2013-01-24 10:17:00,
2013-01-24 05:22:00,6.4,2.3,30.32,North,0,0.0,0.0,83,0.00,,,0.00,WUHU21623XXSP,2013-01-24 10:22:00,
2013-01-24 05:27:00,6.4,2.3,30.33,NNW,337,0.0,0.0,83,0.00,,,0.00,WUHU21623XXSP,2013-01-24 10:27:00,
2013-01-24 05:32:00,6.1,2.0,30.33,NNW,337,0.0,0.0,83,0.00,,,0.00,WUHU21623XXSP,2013-01-24 10:32:00,
2013-01-24 05:37:00,6.1,2.0,30.33,North,0,0.0,0.0,83,0.00,,,0.00,WUHU21623XXSP,2013-01-24 10:37:00,
2013-01-24 05:42:00,6.1,2.0,30.33,North,0,0.0,0.0,83,0.00,,,0.00,WUHU21623XXSP,2013-01-24 10:42:00,
2013-01-24 05:47:00,6.1,1.7,30.34,SSW,202,0.0,0.0,82,0.00,,,0.00,WUHU21623XXSP,2013-01-24 10:47:00,
2013-01-24 05:52:00,5.9,1.5,30.35,NNW,337,0.0,0.0,82,0.00,,,0.00,WUHU21623XXSP,2013-01-24 10:52:00,
2013-01-24 05:57:00,5.7,1.4,30.35,North,0,0.0,0.0,82,0.00,,,0.00,WUHU21623XXSP,2013-01-24 10:57:00,
2013-01-24 06:02:00,5.5,1.2,30.35,NNW,337,0.0,0.0,82,0.00,,,0.00,WUHU21623XXSP,2013-01-24 11:02:00,
2013-01-24 06:07:00,5.5,1.2,30.36,NNW,337,0.0,0.0,82,0.00,,,0.00,WUHU21623XXSP,2013-01-24 11:07:00,
2013-01-24 06:12:00,5.5,1.2,30.36,North,0,0.0,0.0,82,0.00,,,0.00,WUHU21623XXSP,2013-01-24 11:12:00,
2013-01-24 06:17:00,5.4,1.0,30.36,North,0,0.0,0.0,82,0.00,,,0.00,WUHU21623XXSP,2013-01-24 11:17:00,
2013-01-24 06:22:00,5.2,0.8,30.37,North,0,0.0,0.0,82,0.00,,,0.00,WUHU21623XXSP,2013-01-24 11:22:00,
2013-01-24 06:27:00,5.2,0.8,30.37,SSW,202,0.0,0.0,82,0.00,,,0.00,WUHU21623XXSP,2013-01-24 11:27:00,
2013-01-24 06:32:00,5.0,0.6,30.38,SSW,202,0.0,0.0,82,0.00,,,0.00,WUHU21623XXSP,2013-01-24 11:32:00,
2013-01-24 06:37:00,4.8,0.5,30.38,SSW,202,0.0,0.0,82,0.00,,,0.00,WUHU21623XXSP,2013-01-24 11:37:00,
2013-01-24 06:42:00,4.8,0.5,30.38,SSW,202,0.0,0.0,82,0.00,,,0.00,WUHU21623XXSP,2013-01-24 11:42:00,
2013-01-24 06:47:00,4.8,0.5,30.39,North,0,0.0,0.0,82,0.00,,,0.00,WUHU21623XXSP,2013-01-24 11:47:00,
2013-01-24 06:52:00,4.8,0.5,30.39,North,0,0.0,0.0,82,0.00,,,0.00,WUHU21623XXSP,2013-01-24 11:52:00,
2013-01-24 06:57:00,4.8,0.5,30.39,North,0,0.0,0.0,82,0.00,,,0.00,WUHU21623XXSP,2013-01-24 11:57:00,
2013-01-24 07:02:00,4.6,0.3,30.40,North,0,0.0,0.0,82,0.00,,,0.00,WUHU21623XXSP,2013-01-24 12:02:00,
2013-01-24 07:07:00,4.6,0.3,30.41,North,0,0.0,0.0,82,0.00,,,0.00,WUHU21623XXSP,2013-01-24 12:07:00,
2013-01-24 07:12:00,4.6,0.3,30.41,SSW,202,0.0,0.0,82,0.00,,,0.00,WUHU21623XXSP,2013-01-24 12:12:00,
2013-01-24 07:17:00,4.6,0.3,30.41,North,0,0.0,0.0,82,0.00,,,0.00,WUHU21623XXSP,2013-01-24 12:17:00,
2013-01-24 07:22:00,4.5,0.1,30.42,SSW,202,0.0,0.0,82,0.00,,,0.00,WUHU21623XXSP,2013-01-24 12:22:00,
2013-01-24 07:27:00,4.3,-0.1,30.42,SSW,202,0.0,0.0,82,0.00,,,0.00,WUHU21623XXSP,2013-01-24 12:27:00,
2013-01-24 07:32:00,4.3,-0.1,30.43,SSW,202,0.0,0.0,82,0.00,,,0.00,WUHU21623XXSP,2013-01-24 12:32:00,
2013-01-24 07:37:00,4.3,-0.1,30.43,North,0,0.0,0.0,82,0.00,,,0.00,WUHU21623XXSP,2013-01-24 12:37:00,
2013-01-24 07:42:00,4.3,-0.1,30.43,SSW,202,0.0,0.0,82,0.00,,,0.00,WUHU21623XXSP,2013-01-24 12:42:00,
2013-01-24 07:47:00,4.3,-0.1,30.44,NNW,337,0.0,0.0,82,0.00,,,0.00,WUHU21623XXSP,2013-01-24 12:47:00,
2013-01-24 07:52:00,4.3,-0.1,30.44,North,0,0.0,0.0,83,0.00,,,0.00,WUHU21623XXSP,2013-01-24 12:52:00,
2013-01-24 07:57:00,4.3,0.2,30.44,North,0,0.0,0.0,83,0.00,,,0.00,WUHU21623XXSP,2013-01-24 12:57:00,
2013-01-24 08:02:00,4.1,0.0,30.45,North,0,0.0,0.0,83,0.00,,,0.00,WUHU21623XXSP,2013-01-24 13:02:00,
2013-01-24 08:07:00,4.1,0.0,30.45,SSW,202,0.0,0.0,83,0.00,,,0.00,WUHU21623XXSP,2013-01-24 13:07:00,
2013-01-24 08:12:00,4.1,0.0,30.45,NNW,337,0.0,0.0,83,0.00,,,0.00,WUHU21623XXSP,2013-01-24 13:12:00,
2013-01-24 08:17:00,4.1,0.0,30.45,NNW,337,0.0,0.0,83,0.00,,,0.00,WUHU21623XXSP,2013-01-24 13:17:00,
2013-01-24 08:22:00,4.3,-0.1,30.46,SSW,202,0.0,0.0,82,0.00,,,0.00,WUHU21623XXSP,2013-01-24 13:22:00,
2013-01-24 08:27:00,4.3,-0.1,30.45,North,0,0.0,0.0,82,0.00,,,0.00,WUHU21623XXSP,2013-01-24 13:27:00,
2013-01-24 08:32:00,4.3,-0.1,30.46,NNW,337,0.0,0.0,82,0.00,,,0.00,WUHU21623XXSP,2013-01-24 13:32:00,
2013-01-24 08:37:00,4.1,-0.3,30.46,North,0,0.0,0.0,82,0.00,,,0.00,WUHU21623XXSP,2013-01-24 13:37:00,
2013-01-24 08:42:00,4.3,-0.1,30.46,North,0,0.0,0.0,82,0.00,,,0.00,WUHU21623XXSP,2013-01-24 13:42:00,
2013-01-24 08:47:00,4.3,-0.1,30.46,NNW,337,0.0,0.0,82,0.00,,,0.00,WUHU21623XXSP,2013-01-24 13:47:00,
2013-01-24 08:52:00,4.3,-0.1,30.47,North,0,0.0,0.0,82,0.00,,,0.00,WUHU21623XXSP,2013-01-24 13:52:00,
2013-01-24 08:57:00,4.5,0.1,30.48,North,0,0.0,0.0,82,0.00,,,0.00,WUHU21623XXSP,2013-01-24 13:57:00,
2013-01-24 09:02:00,4.5,0.1,30.47,NNW,337,0.0,0.0,82,0.00,,,0.00,WUHU21623XXSP,2013-01-24 14:02:00,
2013-01-24 09:07:00,4.6,0.3,30.48,North,0,0.0,0.0,82,0.00,,,0.00,WUHU21623XXSP,2013-01-24 14:07:00,
2013-01-24 09:12:00,4.6,0.3,30.48,NNW,337,0.0,0.0,82,0.00,,,0.00,WUHU21623XXSP,2013-01-24 14:12:00,
2013-01-24 09:17:00,4.8,0.5,30.48,NNW,337,0.0,0.0,82,0.00,,,0.00,WUHU21623XXSP,2013-01-24 14:17:00,
2013-01-24 09:22:00,5.0,0.6,30.49,North,0,0.0,0.0,82,0.00,,,0.00,WUHU21623XXSP,2013-01-24 14:22:00,
2013-01-24 09:27:00,5.2,0.8,30.49,NNW,337,0.0,0.0,82,0.00,,,0.00,WUHU21623XXSP,2013-01-24 14:27:00,
2013-01-24 09:32:00,5.4,1.0,30.50,NNW,337,0.0,0.0,82,0.00,,,0.00,WUHU21623XXSP,2013-01-24 14:32:00,
2013-01-24 09:37:00,5.7,1.2,30.50,NNE,22,0.0,0.0,82,0.00,,,0.00,WUHU21623XXSP,2013-01-24 14:37:00,
2013-01-24 09:42:00,6.1,1.7,30.50,NNW,337,0.0,0.0,82,0.00,,,0.00,WUHU21623XXSP,2013-01-24 14:42:00,
2013-01-24 09:47:00,6.4,2.1,30.50,NE,45,0.0,0.0,82,0.00,,,0.00,WUHU21623XXSP,2013-01-24 14:47:00,
2013-01-24 09:52:00,7.3,2.7,30.51,SSW,202,0.0,0.0,81,0.00,,,0.00,WUHU21623XXSP,2013-01-24 14:52:00,
2013-01-24 09:57:00,7.7,3.1,30.52,SSW,202,0.0,0.0,81,0.00,,,0.00,WUHU21623XXSP,2013-01-24 14:57:00,
2013-01-24 10:02:00,8.4,3.5,30.52,SSW,202,0.0,0.0,81,0.00,,,0.00,WUHU21623XXSP,2013-01-24 15:02:00,
2013-01-24 10:07:00,9.1,4.2,30.52,NNW,337,0.0,0.0,80,0.00,,,0.00,WUHU21623XXSP,2013-01-24 15:07:00,
2013-01-24 10:12:00,9.7,4.6,30.53,NNW,337,0.0,0.0,80,0.00,,,0.00,WUHU21623XXSP,2013-01-24 15:12:00,
2013-01-24 10:17:00,10.2,4.9,30.53,NNW,337,0.0,0.0,79,0.00,,,0.00,WUHU21623XXSP,2013-01-24 15:17:00,
2013-01-24 10:22:00,10.6,5.3,30.54,North,0,0.0,0.0,78,0.00,,,0.00,WUHU21623XXSP,2013-01-24 15:22:00,
2013-01-24 10:27:00,11.1,5.5,30.54,NNW,337,0.0,0.0,77,0.00,,,0.00,WUHU21623XXSP,2013-01-24 15:27:00,
2013-01-24 10:32:00,11.5,5.6,30.54,North,0,0.0,0.0,77,0.00,,,0.00,WUHU21623XXSP,2013-01-24 15:32:00,
2013-01-24 10:37:00,12.0,5.8,30.54,NNW,337,0.0,0.0,76,0.00,,,0.00,WUHU21623XXSP,2013-01-24 15:37:00,
2013-01-24 10:42:00,12.2,5.7,30.55,NNW,337,0.0,0.0,75,0.00,,,0.00,WUHU21623XXSP,2013-01-24 15:42:00,
2013-01-24 10:47:00,12.6,6.1,30.55,North,0,0.0,0.0,75,0.00,,,0.00,WUHU21623XXSP,2013-01-24 15:47:00,
2013-01-24 10:52:00,12.2,5.6,30.55,NNW,337,0.0,0.0,74,0.00,,,0.00,WUHU21623XXSP,2013-01-24 15:52:00,
2013-01-24 10:57:00,12.4,5.6,30.55,NNE,22,0.0,0.0,74,0.00,,,0.00,WUHU21623XXSP,2013-01-24 15:57:00,
2013-01-24 11:02:00,12.4,5.6,30.55,North,0,0.0,0.0,74,0.00,,,0.00,WUHU21623XXSP,2013-01-24 16:02:00,
2013-01-24 11:07:00,12.6,5.8,30.55,North,0,0.0,0.0,74,0.00,,,0.00,WUHU21623XXSP,2013-01-24 16:07:00,
2013-01-24 11:12:00,12.6,5.5,30.55,North,0,2.0,4.9,73,0.00,,,0.00,WUHU21623XXSP,2013-01-24 16:12:00,
2013-01-24 11:17:00,12.6,5.5,30.56,NNE,22,1.8,6.9,73,0.00,,,0.00,WUHU21623XXSP,2013-01-24 16:17:00,
2013-01-24 11:22:00,12.7,5.7,30.56,North,0,0.0,6.9,73,0.00,,,0.00,WUHU21623XXSP,2013-01-24 16:22:00,
2013-01-24 11:27:00,12.9,5.9,30.56,North,0,1.8,1.8,73,0.00,,,0.00,WUHU21623XXSP,2013-01-24 16:27:00,
2013-01-24 11:32:00,13.1,6.0,30.56,North,0,0.0,1.8,73,0.00,,,0.00,WUHU21623XXSP,2013-01-24 16:32:00,
2013-01-24 11:37:00,13.6,6.6,30.55,NNE,22,0.0,0.0,73,0.00,,,0.00,WUHU21623XXSP,2013-01-24 16:37:00,
2013-01-24 11:42:00,13.8,6.5,30.55,North,0,0.0,0.0,72,0.00,,,0.00,WUHU21623XXSP,2013-01-24 16:42:00,
2013-01-24 11:47:00,13.8,6.5,30.55,NNW,337,3.6,3.6,72,0.00,,,0.00,WUHU21623XXSP,2013-01-24 16:47:00,
2013-01-24 11:52:00,13.6,6.0,30.55,NNW,337,0.0,3.6,72,0.00,,,0.00,WUHU21623XXSP,2013-01-24 16:52:00,
2013-01-24 11:57:00,13.6,6.0,30.55,SW,225,0.0,1.6,71,0.00,,,0.00,WUHU21623XXSP,2013-01-24 16:57:00,
2013-01-24 12:02:00,14.0,6.4,30.55,SW,225,0.0,1.6,71,0.00,,,0.00,WUHU21623XXSP,2013-01-24 17:02:00,
2013-01-24 12:07:00,14.2,6.5,30.55,North,0,0.0,0.0,71,0.00,,,0.00,WUHU21623XXSP,2013-01-24 17:07:00,
2013-01-24 12:12:00,14.4,6.7,30.55,North,0,0.0,0.0,71,0.00,,,0.00,WUHU21623XXSP,2013-01-24 17:12:00,
2013-01-24 12:17:00,14.7,6.7,30.54,NNW,337,2.5,2.5,70,0.00,,,0.00,WUHU21623XXSP,2013-01-24 17:17:00,
2013-01-24 12:22:00,15.1,6.9,30.54,NNW,337,2.5,2.5,70,0.00,,,0.00,WUHU21623XXSP,2013-01-24 17:22:00,
2013-01-24 12:27:00,15.4,7.4,30.54,NNW,337,0.0,2.5,70,0.00,,,0.00,WUHU21623XXSP,2013-01-24 17:27:00,
2013-01-24 12:32:00,15.4,7.0,30.54,SSW,202,0.0,0.0,69,0.00,,,0.00,WUHU21623XXSP,2013-01-24 17:32:00,
2013-01-24 12:37:00,15.6,6.9,30.54,North,0,0.0,0.0,68,0.00,,,0.00,WUHU21623XXSP,2013-01-24 17:37:00,
2013-01-24 12:41:00,16.2,7.4,30.54,NNW,337,0.0,0.0,68,0.00,,,0.00,WUHU21623XXSP,2013-01-24 17:41:00,
2013-01-24 12:46:00,16.3,7.2,30.54,SW,225,3.4,3.4,67,0.00,,,0.00,WUHU21623XXSP,2013-01-24 17:46:00,
2013-01-24 12:51:00,16.3,7.2,30.53,SW,225,3.4,3.4,67,0.00,,,0.00,WUHU21623XXSP,2013-01-24 17:51:00,
2013-01-24 12:56:00,16.7,7.6,30.53,SW,225,0.0,3.4,67,0.00,,,0.00,WUHU21623XXSP,2013-01-24 17:56:00,
2013-01-24 13:01:00,16.9,7.6,30.53,North,0,0.0,3.4,66,0.00,,,0.00,WUHU21623XXSP,2013-01-24 18:01:00,
2013-01-24 13:06:00,16.7,7.2,30.54,SSW,202,0.0,0.0,66,0.00,,,0.00,WUHU21623XXSP,2013-01-24 18:06:00,
2013-01-24 13:11:00,17.2,7.4,30.53,SSW,202,0.0,0.0,65,0.00,,,0.00,WUHU21623XXSP,2013-01-24 18:11:00,
2013-01-24 13:16:00,17.2,7.1,30.54,North,0,0.0,5.4,64,0.00,,,0.00,WUHU21623XXSP,2013-01-24 18:16:00,
2013-01-24 13:21:00,17.4,7.1,30.53,North,0,0.0,5.4,64,0.00,,,0.00,WUHU21623XXSP,2013-01-24 18:21:00,
2013-01-24 13:26:00,17.4,6.9,30.53,NNW,337,0.0,0.0,63,0.00,,,0.00,WUHU21623XXSP,2013-01-24 18:26:00,
2013-01-24 13:31:00,17.8,7.3,30.54,NNW,337,1.6,1.6,63,0.00,,,0.00,WUHU21623XXSP,2013-01-24 18:31:00,
2013-01-24 13:36:00,18.1,7.3,30.53,North,0,0.0,4.5,62,0.00,,,0.00,WUHU21623XXSP,2013-01-24 18:36:00,
2013-01-24 13:41:00,18.3,7.1,30.54,NNW,337,5.4,5.4,61,0.00,,,0.00,WUHU21623XXSP,2013-01-24 18:41:00,
2013-01-24 13:46:00,18.5,7.6,30.53,NNW,337,0.7,5.4,62,0.00,,,0.00,WUHU21623XXSP,2013-01-24 18:46:00,
2013-01-24 13:51:00,18.9,7.2,30.53,North,0,3.1,3.1,60,0.00,,,0.00,WUHU21623XXSP,2013-01-24 18:51:00,
2013-01-24 13:56:00,19.2,7.5,30.53,North,0,0.0,3.1,60,0.00,,,0.00,WUHU21623XXSP,2013-01-24 18:56:00,
2013-01-24 14:01:00,19.6,7.5,30.53,North,0,0.0,0.0,59,0.00,,,0.00,WUHU21623XXSP,2013-01-24 19:01:00,
2013-01-24 14:06:00,19.9,7.4,30.53,North,0,0.0,5.6,58,0.00,,,0.00,WUHU21623XXSP,2013-01-24 19:06:00,
2013-01-24 14:11:00,20.1,7.6,30.53,SSW,202,0.0,5.6,58,0.00,,,0.00,WUHU21623XXSP,2013-01-24 19:11:00,
2013-01-24 14:16:00,20.1,6.8,30.53,NNW,337,4.9,4.9,56,0.00,,,0.00,WUHU21623XXSP,2013-01-24 19:16:00,
2013-01-24 14:21:00,20.1,6.8,30.53,North,0,0.0,4.9,56,0.00,,,0.00,WUHU21623XXSP,2013-01-24 19:21:00,
2013-01-24 14:26:00,19.9,6.6,30.53,SSW,202,2.0,2.0,56,0.00,,,0.00,WUHU21623XXSP,2013-01-24 19:26:00,
2013-01-24 14:31:00,20.3,7.0,30.53,North,0,0.0,2.0,56,0.00,,,0.00,WUHU21623XXSP,2013-01-24 19:31:00,
2013-01-24 14:36:00,19.9,6.6,30.53,North,0,4.5,4.5,56,0.00,,,0.00,WUHU21623XXSP,2013-01-24 19:36:00,
2013-01-24 14:41:00,19.6,5.9,30.53,SSW,202,0.0,4.5,55,0.00,,,0.00,WUHU21623XXSP,2013-01-24 19:41:00,
2013-01-24 14:46:00,19.9,6.2,30.53,SW,225,0.0,0.0,55,0.00,,,0.00,WUHU21623XXSP,2013-01-24 19:46:00,
2013-01-24 14:51:00,20.5,6.7,30.53,SW,225,0.0,0.0,55,0.00,,,0.00,WUHU21623XXSP,2013-01-24 19:51:00,
2013-01-24 14:56:00,20.8,6.7,30.53,North,0,0.0,0.0,54,0.00,,,0.00,WUHU21623XXSP,2013-01-24 19:56:00,
2013-01-24 15:01:00,20.8,5.9,30.53,NNW,337,0.0,0.0,53,0.00,,,0.00,WUHU21623XXSP,2013-01-24 20:01:00,
2013-01-24 15:06:00,20.8,5.4,30.53,NNW,337,0.0,4.5,51,0.00,,,0.00,WUHU21623XXSP,2013-01-24 20:06:00,
2013-01-24 15:11:00,20.1,5.2,30.53,SSW,202,0.0,4.5,52,0.00,,,0.00,WUHU21623XXSP,2013-01-24 20:11:00,
2013-01-24 15:16:00,20.5,5.1,30.53,NNE,22,0.0,2.2,51,0.00,,,0.00,WUHU21623XXSP,2013-01-24 20:16:00,
2013-01-24 15:21:00,20.5,4.7,30.54,North,0,5.4,5.4,50,0.00,,,0.00,WUHU21623XXSP,2013-01-24 20:21:00,
2013-01-24 15:26:00,20.5,4.2,30.53,North,0,0.0,5.4,49,0.00,,,0.00,WUHU21623XXSP,2013-01-24 20:26:00,
2013-01-24 15:31:00,20.1,3.5,30.53,SSW,202,0.0,0.0,48,0.00,,,0.00,WUHU21623XXSP,2013-01-24 20:31:00,
2013-01-24 15:36:00,19.2,3.1,30.53,North,0,1.1,1.1,49,0.00,,,0.00,WUHU21623XXSP,2013-01-24 20:36:00,
2013-01-24 15:41:00,18.7,3.1,30.54,NNW,337,0.0,1.1,50,0.00,,,0.00,WUHU21623XXSP,2013-01-24 20:41:00,
2013-01-24 15:46:00,18.7,3.1,30.54,North,0,0.0,0.0,50,0.00,,,0.00,WUHU21623XXSP,2013-01-24 20:46:00,
2013-01-24 15:51:00,18.1,3.0,30.54,NNW,337,0.0,0.0,51,0.00,,,0.00,WUHU21623XXSP,2013-01-24 20:51:00,
2013-01-24 15:56:00,18.0,2.8,30.54,SSW,202,0.0,0.0,51,0.00,,,0.00,WUHU21623XXSP,2013-01-24 20:56:00,
2013-01-24 16:01:00,17.8,2.8,30.54,NNW,337,1.3,1.3,50,0.00,,,0.00,WUHU21623XXSP,2013-01-24 21:01:00,
2013-01-24 16:06:00,17.4,2.3,30.54,North,0,0.0,1.3,51,0.00,,,0.00,WUHU21623XXSP,2013-01-24 21:06:00,
2013-01-24 16:11:00,17.4,2.3,30.54,NNW,337,0.0,0.0,51,0.00,,,0.00,WUHU21623XXSP,2013-01-24 21:11:00,
2013-01-24 16:16:00,16.9,1.8,30.54,North,0,2.9,2.9,51,0.00,,,0.00,WUHU21623XXSP,2013-01-24 21:16:00,
2013-01-24 16:21:00,16.9,1.8,30.54,NNW,337,0.0,2.9,51,0.00,,,0.00,WUHU21623XXSP,2013-01-24 21:21:00,
2013-01-24 16:26:00,16.7,1.8,30.54,NNW,337,0.0,2.9,51,0.00,,,0.00,WUHU21623XXSP,2013-01-24 21:26:00,
2013-01-24 16:31:00,16.3,1.4,30.54,NNW,337,0.0,0.0,51,0.00,,,0.00,WUHU21623XXSP,2013-01-24 21:31:00,
2013-01-24 16:36:00,16.0,1.0,30.54,NNW,337,0.0,0.0,51,0.00,,,0.00,WUHU21623XXSP,2013-01-24 21:36:00,
2013-01-24 16:41:00,15.6,1.1,30.55,North,0,0.0,0.0,52,0.00,,,0.00,WUHU21623XXSP,2013-01-24 21:41:00,
2013-01-24 16:46:00,15.6,1.1,30.55,North,0,0.0,0.0,52,0.00,,,0.00,WUHU21623XXSP,2013-01-24 21:46:00,
2013-01-24 16:51:00,15.1,0.5,30.54,North,0,0.0,0.0,52,0.00,,,0.00,WUHU21623XXSP,2013-01-24 21:51:00,
2013-01-24 16:56:00,14.7,0.2,30.55,NNW,337,0.0,0.0,52,0.00,,,0.00,WUHU21623XXSP,2013-01-24 21:56:00,
2013-01-24 17:01:00,14.5,0.0,30.54,NNW,337,0.0,0.0,52,0.00,,,0.00,WUHU21623XXSP,2013-01-24 22:01:00,
2013-01-24 17:06:00,14.2,-0.3,30.55,NNW,337,0.0,0.0,52,0.00,,,0.00,WUHU21623XXSP,2013-01-24 22:06:00,
2013-01-24 17:11:00,13.8,-0.3,30.54,NNW,337,0.0,0.0,53,0.00,,,0.00,WUHU21623XXSP,2013-01-24 22:11:00,
2013-01-24 17:16:00,13.3,-0.8,30.54,NNW,337,0.0,0.0,53,0.00,,,0.00,WUHU21623XXSP,2013-01-24 22:16:00,
2013-01-24 17:21:00,12.9,-0.7,30.54,NNW,337,0.0,0.0,54,0.00,,,0.00,WUHU21623XXSP,2013-01-24 22:21:00,
2013-01-24 17:26:00,12.7,-0.9,30.54,NNW,337,0.0,0.0,54,0.00,,,0.00,WUHU21623XXSP,2013-01-24 22:26:00,
2013-01-24 17:31:00,12.2,-1.0,30.54,NNW,337,0.0,0.0,55,0.00,,,0.00,WUHU21623XXSP,2013-01-24 22:31:00,
2013-01-24 17:36:00,11.8,-1.4,30.53,NNW,337,0.0,0.0,55,0.00,,,0.00,WUHU21623XXSP,2013-01-24 22:36:00,
2013-01-24 17:41:00,11.5,-1.3,30.53,NNW,337,0.0,0.0,56,0.00,,,0.00,WUHU21623XXSP,2013-01-24 22:41:00,
2013-01-24 17:46:00,10.9,-1.8,30.53,NNW,337,0.0,0.0,56,0.00,,,0.00,WUHU21623XXSP,2013-01-24 22:46:00,
2013-01-24 17:51:00,10.6,-2.1,30.53,NNW,337,0.0,0.0,56,0.00,,,0.00,WUHU21623XXSP,2013-01-24 22:51:00,
2013-01-24 17:56:00,10.2,-2.5,30.53,NNW,337,0.0,0.0,56,0.00,,,0.00,WUHU21623XXSP,2013-01-24 22:56:00,
2013-01-24 18:01:00,9.7,-2.6,30.53,NNW,337,0.0,0.0,57,0.00,,,0.00,WUHU21623XXSP,2013-01-24 23:01:00,
2013-01-24 18:06:00,9.7,-2.6,30.53,NNW,337,0.0,0.0,57,0.00,,,0.00,WUHU21623XXSP,2013-01-24 23:06:00,
2013-01-24 18:11:00,9.3,-3.0,30.53,NNW,337,0.0,0.0,57,0.00,,,0.00,WUHU21623XXSP,2013-01-24 23:11:00,
2013-01-24 18:16:00,9.1,-2.8,30.54,NNW,337,0.0,0.0,58,0.00,,,0.00,WUHU21623XXSP,2013-01-24 23:16:00,
2013-01-24 18:21:00,9.0,-3.0,30.53,NNW,337,0.0,0.0,58,0.00,,,0.00,WUHU21623XXSP,2013-01-24 23:21:00,
2013-01-24 18:26:00,8.8,-3.0,30.53,NNW,337,0.0,0.0,58,0.00,,,0.00,WUHU21623XXSP,2013-01-24 23:26:00,
2013-01-24 18:31:00,8.4,-3.5,30.53,NNW,337,0.0,0.0,58,0.00,,,0.00,WUHU21623XXSP,2013-01-24 23:31:00,
2013-01-24 18:36:00,8.4,-3.1,30.53,NNW,337,0.0,0.0,59,0.00,,,0.00,WUHU21623XXSP,2013-01-24 23:36:00,
2013-01-24 18:41:00,8.4,-3.1,30.53,NNW,337,0.0,0.0,59,0.00,,,0.00,WUHU21623XXSP,2013-01-24 23:41:00,
2013-01-24 18:46:00,8.2,-3.3,30.53,NNW,337,0.0,0.0,59,0.00,,,0.00,WUHU21623XXSP,2013-01-24 23:46:00,
2013-01-24 18:51:00,8.1,-3.4,30.53,NNW,337,0.0,0.0,59,0.00,,,0.00,WUHU21623XXSP,2013-01-24 23:51:00,
2013-01-24 18:56:00,7.9,-3.6,30.54,NNW,337,0.0,0.0,59,0.00,,,0.00,WUHU21623XXSP,2013-01-24 23:56:00,
2013-01-24 19:01:00,7.5,-3.5,30.54,NNW,337,0.0,0.0,60,0.00,,,0.00,WUHU21623XXSP,2013-01-25 00:01:00,
2013-01-24 19:06:00,7.5,-3.5,30.54,NNW,337,0.0,0.0,60,0.00,,,0.00,WUHU21623XXSP,2013-01-25 00:06:00,
2013-01-24 19:11:00,7.5,-3.5,30.54,NNW,337,0.0,0.0,60,0.00,,,0.00,WUHU21623XXSP,2013-01-25 00:11:00,
2013-01-24 19:16:00,7.3,-3.7,30.53,NNW,337,0.0,0.0,60,0.00,,,0.00,WUHU21623XXSP,2013-01-25 00:16:00,
2013-01-24 19:21:00,7.2,-3.9,30.54,NNW,337,0.0,0.0,60,0.00,,,0.00,WUHU21623XXSP,2013-01-25 00:21:00,
2013-01-24 19:26:00,7.2,-3.9,30.53,NNW,337,0.0,0.0,60,0.00,,,0.00,WUHU21623XXSP,2013-01-25 00:26:00,
2013-01-24 19:31:00,7.0,-4.0,30.53,NNW,337,0.0,0.0,60,0.00,,,0.00,WUHU21623XXSP,2013-01-25 00:31:00,
2013-01-24 19:36:00,7.0,-3.7,30.53,NNW,337,0.0,0.0,61,0.00,,,0.00,WUHU21623XXSP,2013-01-25 00:36:00,
2013-01-24 19:41:00,7.0,-3.7,30.52,NNW,337,0.0,0.0,62,0.00,,,0.00,WUHU21623XXSP,2013-01-25 00:41:00,
2013-01-24 19:46:00,7.0,-3.4,30.52,NNW,337,0.0,0.0,62,0.00,,,0.00,WUHU21623XXSP,2013-01-25 00:46:00,
2013-01-24 19:51:00,7.0,-3.4,30.52,NNW,337,0.0,0.0,62,0.00,,,0.00,WUHU21623XXSP,2013-01-25 00:51:00,
2013-01-24 19:56:00,7.0,-3.4,30.52,NNW,337,0.0,0.0,62,0.00,,,0.00,WUHU21623XXSP,2013-01-25 00:56:00,
2013-01-24 20:01:00,7.0,-3.4,30.51,NNW,337,0.0,0.0,62,0.00,,,0.00,WUHU21623XXSP,2013-01-25 01:01:00,
2013-01-24 20:06:00,7.0,-3.4,30.51,NNW,337,0.0,0.0,62,0.00,,,0.00,WUHU21623XXSP,2013-01-25 01:06:00,
2013-01-24 20:11:00,7.0,-3.4,30.51,NNW,337,0.0,0.0,62,0.00,,,0.00,WUHU21623XXSP,2013-01-25 01:11:00,
2013-01-24 20:16:00,7.2,-2.9,30.51,NNW,337,0.0,0.0,63,0.00,,,0.00,WUHU21623XXSP,2013-01-25 01:16:00,
2013-01-24 20:21:00,7.2,-2.9,30.51,NNW,337,0.0,0.0,63,0.00,,,0.00,WUHU21623XXSP,2013-01-25 01:21:00,
2013-01-24 20:26:00,7.3,-2.7,30.50,NNW,337,0.0,0.0,63,0.00,,,0.00,WUHU21623XXSP,2013-01-25 01:26:00,
2013-01-24 20:31:00,7.3,-2.4,30.50,NNW,337,0.0,0.0,64,0.00,,,0.00,WUHU21623XXSP,2013-01-25 01:31:00,
2013-01-24 20:36:00,7.5,-2.2,30.50,NNW,337,0.0,0.0,64,0.00,,,0.00,WUHU21623XXSP,2013-01-25 01:36:00,
2013-01-24 20:41:00,7.5,-2.2,30.50,NNW,337,0.0,0.0,64,0.00,,,0.00,WUHU21623XXSP,2013-01-25 01:41:00,
2013-01-24 20:46:00,7.5,-2.2,30.49,NNW,337,0.0,0.0,64,0.00,,,0.00,WUHU21623XXSP,2013-01-25 01:46:00,
2013-01-24 20:51:00,7.7,-1.7,30.49,NNW,337,0.0,0.0,65,0.00,,,0.00,WUHU21623XXSP,2013-01-25 01:51:00,
2013-01-24 20:56:00,7.9,-1.5,30.49,NNW,337,0.0,0.0,65,0.00,,,0.00,WUHU21623XXSP,2013-01-25 01:56:00,
2013-01-24 21:01:00,7.9,-1.5,30.50,NNW,337,0.0,0.0,65,0.00,,,0.00,WUHU21623XXSP,2013-01-25 02:01:00,
2013-01-24 21:06:00,7.9,-1.5,30.49,NNW,337,0.0,0.0,65,0.00,,,0.00,WUHU21623XXSP,2013-01-25 02:06:00,
2013-01-24 21:11:00,7.9,-1.5,30.49,NNW,337,0.0,0.0,65,0.00,,,0.00,WUHU21623XXSP,2013-01-25 02:11:00,
2013-01-24 21:16:00,8.2,-1.4,30.49,NNW,337,0.0,0.0,66,0.00,,,0.00,WUHU21623XXSP,2013-01-25 02:16:00,
2013-01-24 21:21:00,8.2,-0.9,30.49,NNW,337,0.0,0.0,66,0.00,,,0.00,WUHU21623XXSP,2013-01-25 02:21:00,
2013-01-24 21:26:00,8.2,-0.9,30.49,NNW,337,0.0,0.0,66,0.00,,,0.00,WUHU21623XXSP,2013-01-25 02:26:00,
2013-01-24 21:31:00,8.4,-0.7,30.49,NNW,337,0.0,0.0,66,0.00,,,0.00,WUHU21623XXSP,2013-01-25 02:31:00,
2013-01-24 21:36:00,8.4,-0.7,30.49,NNW,337,0.0,0.0,66,0.00,,,0.00,WUHU21623XXSP,2013-01-25 02:36:00,
2013-01-24 21:41:00,8.4,-0.7,30.49,NNW,337,0.0,0.0,66,0.00,,,0.00,WUHU21623XXSP,2013-01-25 02:41:00,
2013-01-24 21:46:00,8.4,-0.7,30.48,NNW,337,0.0,0.0,66,0.00,,,0.00,WUHU21623XXSP,2013-01-25 02:46:00,
2013-01-24 21:51:00,8.4,-0.7,30.48,NNW,337,0.0,0.0,66,0.00,,,0.00,WUHU21623XXSP,2013-01-25 02:51:00,
2013-01-24 21:56:00,8.6,-0.5,30.48,NNW,337,0.0,0.0,66,0.00,,,0.00,WUHU21623XXSP,2013-01-25 02:56:00,
2013-01-24 22:01:00,8.6,-0.5,30.49,NNW,337,0.0,0.0,66,0.00,,,0.00,WUHU21623XXSP,2013-01-25 03:01:00,
2013-01-24 22:06:00,8.8,-0.3,30.49,North,0,0.0,0.0,66,0.00,,,0.00,WUHU21623XXSP,2013-01-25 03:06:00,
2013-01-24 22:11:00,8.8,-0.3,30.49,NNE,22,0.0,0.0,66,0.00,,,0.00,WUHU21623XXSP,2013-01-25 03:11:00,
2013-01-24 22:16:00,9.0,-0.2,30.49,NNE,22,0.0,0.0,66,0.00,,,0.00,WUHU21623XXSP,2013-01-25 03:16:00,
2013-01-24 22:21:00,9.0,-0.2,30.49,NNE,22,0.0,0.0,66,0.00,,,0.00,WUHU21623XXSP,2013-01-25 03:21:00,
2013-01-24 22:26:00,9.0,-0.2,30.48,NNE,22,0.0,0.0,66,0.00,,,0.00,WUHU21623XXSP,2013-01-25 03:26:00,
2013-01-24 22:31:00,9.1,0.0,30.48,NNE,22,0.0,0.0,66,0.00,,,0.00,WUHU21623XXSP,2013-01-25 03:31:00,
2013-01-24 22:36:00,9.1,0.0,30.48,NNE,22,0.0,0.0,66,0.00,,,0.00,WUHU21623XXSP,2013-01-25 03:36:00,
2013-01-24 22:41:00,9.1,0.0,30.48,NNE,22,0.0,0.0,66,0.00,,,0.00,WUHU21623XXSP,2013-01-25 03:41:00,
2013-01-24 22:46:00,9.1,0.0,30.48,South,180,0.0,0.0,66,0.00,,,0.00,WUHU21623XXSP,2013-01-25 03:46:00,
2013-01-24 22:51:00,9.3,0.2,30.48,South,180,0.0,0.0,66,0.00,,,0.00,WUHU21623XXSP,2013-01-25 03:51:00,
2013-01-24 22:56:00,9.3,0.5,30.48,South,180,0.0,0.0,67,0.00,,,0.00,WUHU21623XXSP,2013-01-25 03:56:00,
2013-01-24 23:01:00,9.3,0.5,30.48,South,180,0.0,0.0,67,0.00,,,0.00,WUHU21623XXSP,2013-01-25 04:01:00,
2013-01-24 23:06:00,9.3,0.5,30.48,NNE,22,0.0,0.0,67,0.00,,,0.00,WUHU21623XXSP,2013-01-25 04:06:00,
2013-01-24 23:11:00,9.5,0.7,30.48,NNE,22,0.0,0.0,67,0.00,,,0.00,WUHU21623XXSP,2013-01-25 04:11:00,
2013-01-24 23:16:00,9.5,0.7,30.47,NNE,22,0.0,0.0,67,0.00,,,0.00,WUHU21623XXSP,2013-01-25 04:16:00,
2013-01-24 23:21:00,9.7,0.8,30.47,NNE,22,0.0,0.0,67,0.00,,,0.00,WUHU21623XXSP,2013-01-25 04:21:00,
2013-01-24 23:26:00,9.7,0.8,30.47,South,180,0.0,0.0,67,0.00,,,0.00,WUHU21623XXSP,2013-01-25 04:26:00,
2013-01-24 23:31:00,9.7,0.8,30.47,NNE,22,0.0,0.0,67,0.00,,,0.00,WUHU21623XXSP,2013-01-25 04:31:00,
2013-01-24 23:36:00,9.7,0.8,30.47,NNE,22,0.0,0.0,67,0.00,,,0.00,WUHU21623XXSP,2013-01-25 04:36:00,
2013-01-24 23:41:00,9.7,0.8,30.47,South,180,0.0,0.0,67,0.00,,,0.00,WUHU21623XXSP,2013-01-25 04:41:00,
2013-01-24 23:46:00,10.0,1.2,30.48,NNE,22,0.0,0.0,67,0.00,,,0.00,WUHU21623XXSP,2013-01-25 04:46:00,
2013-01-24 23:51:00,10.0,1.2,30.47,South,180,0.0,0.0,67,0.00,,,0.00,WUHU21623XXSP,2013-01-25 04:51:00,
2013-01-24 23:56:00,10.0,1.2,30.47,South,180,0.0,0.0,67,0.00,,,0.00,WUHU21623XXSP,2013-01-25 04:56:00,